Location: Praha
(50.0830°N, 14.4670°E)
Time: 06:04:11
(UTC+01:00)

ISS - Pass Details

Date: 08 February 2020
Orbit: 415 x 423 km, 51.6° (Epoch: 27 February)

Event Time Altitude Azimuth Distance (km) Brightness Sun altitude
Rises 17:47:02 0° 285° (WNW) 2,382 1.2 -6.9°
Reaches altitude 10° 17:49:24 10° 271° (W) 1,512 0.6 -7.2°
Maximum altitude 17:52:09 23° 217° (SW) 946 -1.3 -7.7°
Drops below altitude 10° 17:54:53 10° 162° (SSE) 1,502 -1.0 -8.1°
Sets 17:57:14 0° 148° (SSE) 2,361 -0.1 -8.5°
